Hourly Data Report for October 03, 2016

All times are specified in Local Standard Time (LST). Add 1 hour to adjust for Daylight Saving Time where and when it is observed.

TORONTO INTL A
ONTARIO

43°40'36.000" N
79°37'50.000" W
173.40 m
6158731
71624
YYZ

Download Data

Hourly Data (October 2016)
Hourly Data Report for October 3, 2016
Temp Definition
°C
Dew Point Temp Definition
°C
Rel Hum Definition
%
Wind Dir Definition
10's deg

Wind Spd Definition
km/h
Visibility Definition
km
Stn Press Definition
kPa
Hmdx Definition


Wind Chill Definition


Weather Definition


TIME
00:00 Legend Double Dagger 13.6 12.7 94 28 8 24.1 99.49     LegendNANA
01:00 Legend Double Dagger 14.3 13.0 92 28 9 24.1 99.49     Mostly Cloudy
02:00 Legend Double Dagger 13.8 12.9 94 28 10 24.1 99.49     LegendNANA
03:00 Legend Double Dagger 13.8 12.9 94 30 8 24.1 99.49     LegendNANA
04:00 Legend Double Dagger 13.4 12.6 95 32 13 24.1 99.51     Mainly Clear
05:00 Legend Double Dagger 14.6 13.7 94 34 16 24.1 99.54     LegendNANA
06:00 Legend Double Dagger 14.4 13.0 91 35 13 24.1 99.59     LegendNANA
07:00 Legend Double Dagger 14.8 13.2 90 34 17 24.1 99.66     Mostly Cloudy
08:00 Legend Double Dagger 15.1 13.7 91 35 22 24.1 99.70     LegendNANA
09:00 Legend Double Dagger 15.7 13.6 87 35 19 24.1 99.74     LegendNANA
10:00 Legend Double Dagger 16.6 13.9 84 2 10 24.1 99.76     Mostly Cloudy
11:00 Legend Double Dagger 17.3 13.3 77 1 12 24.1 99.79     LegendNANA
12:00 Legend Double Dagger 17.8 13.4 75 1 9 24.1 99.80     LegendNANA
13:00 Legend Double Dagger 18.1 12.0 67 34 5 24.1 99.77     Mostly Cloudy
14:00 Legend Double Dagger 18.5 12.3 67 2 7 24.1 99.78     LegendNANA
15:00 Legend Double Dagger 18.3 12.4 68 36 1 24.1 99.78     LegendNANA
16:00 Legend Double Dagger 17.2 14.0 81 14 7 24.1 99.82     Mostly Cloudy
17:00 Legend Double Dagger 17.8 14.0 78 36 1 24.1 99.86     LegendNANA
18:00 Legend Double Dagger 17.6 14.0 79 14 6 24.1 99.90     LegendNANA
19:00 Legend Double Dagger 17.4 14.3 82 2 4 24.1 99.95     Mostly Cloudy
20:00 Legend Double Dagger 16.6 14.1 85 1 10 24.1 100.00     LegendNANA
21:00 Legend Double Dagger 15.9 13.8 87 3 10 24.1 100.05     LegendNANA
22:00 Legend Double Dagger 15.8 14.5 92 11 3 24.1 100.08     Mostly Cloudy
23:00 Legend Double Dagger 16.0 14.7 92 9 4 24.1 100.12     LegendNANA

Notes on Data Quality.

Legend

  • E = Estimated
  • M = Missing
  • NA = Not Available
  • ‡ = Partner data that is not subject to review by the National Climate Archives
Date modified: